IRIDIUM 33 DEB, 34833

Orbit data source: Space-Track

IRIDIUM 33 DEB, 34833 is space debris in LEO originally from a launch on Sun, 14 Sep 1997 UTC launched from the Tyuratam Missile And Space Complex (TTMTR). The debris from Iridium 33, an American commercial communications satellite, has been tracked extensively since its accidental collision with the defunct Russian satellite Cosmos 2251 in 2009. This event, occurring at high speed in low Earth orbit (LEO), generated thousands of pieces of space debris, significantly increasing the risk of further collisions. The Iridium 33 debris cloud has impacted space traffic management and orbital debris mitigation strategies, making it a subject of ongoing study in space situational awareness.

Loading next visibility...
Identifier
34833, 1997-051MH
Orbit
LEO
Country
Flag of USUS
Related business
Manufacturer
Unknown
Mission
Spacecraft
Bus & Motor
Unknown
Mass
Unknown
Launch date (UTC)
1997-09-14 (28 years ago)
Launch vehicle
Unknown
Launch site
Tyuratam Missile And Space Complex (TTMTR)
Object type
Payload
Rocket body
Debris
Shape & HBR
Unknown shape, 0.1 m
Radar Cross Section
Small (<0.1 m²)

Expand to show TLE details & history
Last TLE update: 1 day ago

TLE from 1 day ago
0 IRIDIUM 33 DEB
1 34833U 97051MH  25348.19809119  .00003644  00000-0  88730-3 0  9999
2 34833  86.3931  50.3648 0021735  94.0496 320.0854 14.52391070877364
Epoch: 2025-12-14T04:45Z
TLE epoch observation values (Epoch: 2025-12-14T04:45:15.078Z)
Latitude
53.91893°
Longitude
-99.12671°
Altitude
714.99 km
Speed
7.509 km/s
True Right ascension
03h 41m 12s
True Declination
53° 45' 15"
Sunlit
Object was in full shadow at epoch
Visualization orbit readout
Latitude
Unknown
Longitude
Unknown
Altitude
Unknown
Speed
Unknown
Apparent Right ascension
Unknown
Apparent Declination
Unknown
Sunlit
N/A
Visualization observer readout
Local Sidereal Time
04:21:15
Azimuth
Unknown
Elevation
Unknown
Doppler factor
Unknown
Orbital elements
Apogee altitude
730.205 km
Perigee altitude
699.372 km
Semi-major axis
7,092.926 km
Eccentricity
0.00217
Inclination
86.3931°
RAAN
50.3648°
Arg. of periapsis
94.0496°
True anomaly
319.92526°
Mean anomaly
320.0854°
Eccentric anomaly
320.00536°
Mean motion
3.63333 °/min
Orbital period
99.08 mins
BSTAR
0.0008873
Loading maneuver chart data...
Computing Atmospheric mass density...

Documentation

Showing up to 5 results
|